Snowfall_Accumulation
0.1 1.5 4.5 1.6 0.6 1.3 1.8 1.6 1.2 0.7 0.1 0.3 0.5 0.4 0.0 0.0 0.0 0.0 0.0 0.0 0.0 0.0 0.0 0.0 0.0 0.0 0.0 0.0 0.0 0.0 0.0 0.0 0.0 0.0 0.0 0.0 0.0 0.0 0.0 0.0 0.0 0.0 0.0 0.0
2.3 3.5 0.9 0.3 0.4 1.2 2.2 2.5 1.6 0.7 0.0 0.7 1.0 0.5 0.1 0.0 0.0 0.0 0.0 0.0 0.0 0.0 0.0 0.0 0.0 0.0 0.0 0.0 0.0 0.0 0.0 0.0 0.0 0.0 0.0 0.0 0.0 0.0 0.0 0.0 0.0 0.0 0.0 0.0
4.5 1.9 0.2 0.7 1.2 2.4 2.4 2.5 1.5 1.7 0.8 0.1 1.0 1.8 0.3 0.2 0.0 0.0 0.0 0.0 0.0 0.0 0.0 0.0 0.0 0.0 0.0 0.0 0.0 0.0 0.0 0.0 0.0 0.0 0.0 0.0 0.0 0.0 0.0 0.0 0.0 0.0 0.0 0.0
1.7 0.5 0.5 1.5 2.0 2.1 3.2 0.6 0.5 1.3 2.3 3.2 2.4 5.2 1.2 0.4 0.3 0.0 0.1 0.3 0.0 0.0 0.0 0.0 0.0 0.0 0.0 0.0 0.0 0.0 0.0 0.0 0.0 0.0 0.0 0.0 0.0 0.0 0.0 0.0 0.0 0.0 0.0 0.0
2.9 0.6 0.7 2.7 1.6 1.1 1.2 0.1 0.5 1.2 3.4 4.5 2.1 4.6 2.9 0.6 1.1 0.6 0.2 0.3 0.2 0.0 0.0 0.0 0.0 0.0 0.0 0.0 0.0 0.0 0.0 0.0 0.0 0.0 0.0 0.0 0.0 0.0 0.0 0.0 0.0 0.0 0.0 0.0
1.4 0.4 0.5 0.7 0.1 0.3 0.4 0.4 0.8 2.1 5.6 10.2 3.8 4.4 3.6 2.8 2.4 1.0 0.2 0.3 0.1 0.1 0.0 0.0 0.0 0.0 0.0 0.0 0.0 0.0 0.0 0.0 0.0 0.0 0.0 0.0 0.0 0.0 0.0 0.0 0.0 0.0 0.0 0.0
6.9 2.6 0.6 0.2 2.0 1.6 1.8 10.7 17.5 17.4 15.2 8.5 1.6 2.8 3.4 1.7 0.3 0.3 0.3 0.5 0.3 0.2 0.2 0.1 0.0 0.2 0.0 0.1 0.0 0.0 0.0 0.0 0.0 0.0 0.0 0.0 0.0 0.0 0.0 0.0 0.0 0.0 0.0 0.0
9.8 10.8 1.5 0.3 1.0 3.0 3.0 7.0 12.7 11.4 7.7 3.7 1.9 3.2 3.3 0.2 0.1 0.0 0.1 0.4 0.3 0.5 0.5 0.4 0.2 0.4 0.0 0.0 0.0 0.0 0.0 0.0 0.0 0.0 0.0 0.0 0.0 0.0 0.0 0.0 0.0 0.0 0.0 0.0
7.5 7.9 0.7 0.2 0.3 1.1 5.5 6.7 3.7 8.7 6.5 4.4 2.9 2.1 1.7 0.0 0.2 0.4 0.2 0.3 0.4 0.4 0.4 0.5 0.7 0.6 0.3 0.3 0.0 0.0 0.0 0.0 0.0 0.0 0.0 0.0 0.0 0.0 0.0 0.0 0.0 0.0 0.0 0.0
4.1 7.8 2.8 0.3 0.5 0.5 1.0 1.3 6.0 10.9 9.0 6.1 3.0 2.3 3.3 2.2 1.4 0.8 0.4 0.4 0.3 0.2 0.3 0.4 0.5 0.7 0.6 0.2 0.4 0.1 0.0 0.0 0.0 0.0 0.0 0.0 0.0 0.0 0.0 0.0 0.0 0.0 0.0 0.0
2.5 6.9 7.0 1.8 4.0 4.1 2.5 3.8 6.6 8.2 6.9 7.0 4.6 3.3 2.4 2.1 1.3 1.2 0.4 0.4 0.6 0.6 0.4 0.4 0.5 0.5 0.4 0.4 0.1 0.1 0.0 0.0 0.0 0.0 0.0 0.0 0.0 0.0 0.0 0.0 0.0 0.0 0.0 0.0
1.5 4.2 8.8 3.7 0.4 0.3 0.7 2.0 4.5 9.0 7.0 5.6 5.2 3.4 0.5 0.3 0.2 0.4 0.4 0.3 0.4 0.4 0.3 0.3 0.3 0.4 0.4 0.2 0.1 0.1 0.1 0.2 0.0 0.0 0.0 0.0 0.0 0.0 0.0 0.0 0.0 0.0 0.0 0.0
1.8 4.4 8.5 3.8 1.5 0.7 1.7 1.2 2.0 4.3 8.1 6.6 6.1 3.6 0.3 0.4 0.2 0.3 0.3 0.3 0.2 0.2 0.3 0.3 0.3 0.3 0.3 0.2 0.1 0.1 0.1 0.2 0.1 0.0 0.0 0.0 0.0 0.0 0.0 0.0 0.0 0.0 0.0 0.0
1.0 3.6 5.4 5.5 3.7 3.3 3.5 2.7 2.4 6.3 10.1 5.8 3.7 3.1 1.5 0.7 0.5 0.4 0.3 0.3 0.2 0.2 0.2 0.2 0.2 0.2 0.2 0.2 0.2 0.1 0.1 0.1 0.2 0.1 0.0 0.0 0.0 0.0 0.0 0.0 0.0 0.0 0.0 0.0
1.1 3.4 2.8 1.6 0.9 1.5 2.1 2.4 2.5 4.8 4.6 5.2 2.8 2.3 1.2 0.7 0.5 0.3 0.2 0.2 0.1 0.1 0.1 0.1 0.1 0.2 0.2 0.2 0.2 0.1 0.1 0.1 0.1 0.1 0.1 0.1 0.1 0.1 0.0 0.0 0.0 0.0 0.0 0.0
0.7 2.0 1.8 2.3 0.6 0.8 2.3 1.7 1.8 2.0 2.2 3.0 2.4 1.9 0.7 0.4 0.2 0.3 0.2 0.1 0.1 0.2 0.1 0.1 0.1 0.1 0.1 0.1 0.2 0.2 0.1 0.1 0.1 0.2 0.2 0.1 0.1 0.1 0.0 0.0 0.0 0.0 0.0 0.0
0.7 1.0 4.1 3.1 1.0 2.3 3.6 1.7 1.6 1.9 1.7 2.0 3.2 1.9 0.8 0.7 0.7 0.7 0.1 0.1 0.1 0.2 0.2 0.1 0.0 0.1 0.1 0.1 0.1 0.1 0.1 0.1 0.1 0.1 0.2 0.1 0.1 0.1 0.1 0.1 0.1 0.1 0.1 0.1
0.6 1.2 3.6 3.3 2.1 3.2 1.4 0.3 0.6 1.1 1.3 0.9 1.2 1.0 0.5 0.5 0.4 0.1 0.0 0.1 0.1 0.2 0.2 0.1 0.1 0.1 0.0 0.1 0.0 0.1 0.0 0.1 0.1 0.1 0.1 0.2 0.3 0.2 0.4 0.4 0.4 0.5 0.4 0.5
0.4 0.9 4.3 3.8 2.6 1.7 0.5 0.3 0.5 1.2 1.9 0.9 0.8 0.4 0.2 0.1 0.1 0.1 0.0 0.0 0.1 0.1 0.1 0.1 0.1 0.0 0.0 0.0 0.0 0.0 0.1 0.0 0.1 0.1 0.2 0.4 0.6 0.7 0.5 0.6 0.5 0.5 0.5 0.5
0.3 0.5 3.2 3.7 3.3 2.2 0.9 0.2 0.1 0.3 1.9 0.5 0.2 0.4 0.2 0.1 0.6 0.9 0.0 0.0 0.0 0.0 0.0 0.0 0.1 0.1 0.0 0.0 0.0 0.0 0.0 0.1 0.2 0.2 0.4 0.4 0.3 0.9 0.7 0.7 0.6 0.6 0.6 0.7
1.4 2.0 3.4 3.2 2.9 1.2 0.3 0.0 0.0 1.2 4.0 0.3 0.3 0.3 0.2 0.4 0.9 0.6 0.1 0.0 0.0 0.0 0.0 0.0 0.0 0.1 0.1 0.2 0.2 0.4 0.4 0.5 0.6 0.2 0.1 0.2 0.4 0.8 0.8 0.7 0.5 0.7 0.6 0.7
0.9 1.3 1.3 1.4 2.2 1.5 0.2 0.2 0.8 0.9 0.3 0.3 0.3 0.2 0.2 0.2 0.2 0.2 0.1 0.1 0.1 0.1 0.0 0.2 0.2 0.4 0.4 0.5 0.4 0.5 0.7 0.2 0.2 0.3 0.3 0.5 0.7 0.7 0.5 0.4 0.6 1.0 1.1 0.9
0.7 0.9 0.9 0.9 1.0 0.6 0.3 0.4 0.2 0.1 0.2 0.2 0.1 0.1 0.1 0.2 0.3 0.2 0.2 0.2 0.1 0.2 0.1 0.1 0.2 0.2 0.2 0.1 0.1 0.6 0.6 0.5 0.3 0.4 0.4 0.5 0.5 0.5 0.6 0.4 0.7 0.7 0.7 0.7
0.6 0.3 0.5 0.8 0.4 0.4 0.2 0.2 0.1 0.1 0.1 0.1 0.1 0.0 0.1 0.1 0.1 0.1 0.2 0.2 0.2 0.2 0.2 0.2 0.3 0.3 0.3 0.3 0.4 0.6 0.5 0.3 0.4 0.6 0.7 0.7 0.5 0.5 0.4 0.5 0.4 0.6 0.6 0.6
0.3 0.3 0.6 1.0 0.4 0.3 0.2 0.1 0.1 0.1 0.1 0.1 0.1 0.1 0.1 0.1 0.1 0.1 0.1 0.1 0.1 0.1 0.1 0.2 0.3 0.3 0.4 0.4 0.6 0.5 0.5 0.5 0.6 0.5 0.6 0.5 0.5 0.4 0.4 0.5 0.3 0.5 0.5 0.6
0.5 0.5 0.7 0.9 0.3 0.4 0.4 0.1 0.1 0.1 0.1 0.1 0.1 0.1 0.1 0.1 0.1 0.1 0.1 0.1 0.1 0.2 0.1 0.2 0.3 0.3 0.4 0.5 0.5 0.6 0.3 0.3 0.7 0.7 0.5 0.5 0.4 0.4 0.5 0.5 0.5 0.2 0.4 0.4